Epoch 2019 Feb. 6.0 TT = JDT 2458520.5
T 2019 Feb. 2.50444 TT Rudenko
q 3.9211539 (2000.0) P Q
z -0.0005371 Peri. 284.74975 +0.27591561 +0.96068812
+/-0.0000002 Node 2.17723 -0.19811241 +0.08820118
e 1.0021062 Incl. 54.17877 -0.94054349 +0.26324683
From 1178 observations 2016 Mar. 4-2020 Oct. 17, mean residual 0".5.
Finding Charts
Magnitudes Graph
m1 = 5.0 + 5 log d + 10.0 log r(t - 200)
The orbital elements are published on M.P.E.C. 2020-U96.
The charts are made with StellaNavigator Ver.10 (AstroArts).
The magnitudes graphs are made with Comet for Windows.
Copyright(C) Seiichi Yoshida (comet@aerith.net). All rights reserved.